Clovis, NM

12:52 PM MDT on May 29, 2017 (GMT -0600)
Clovis Municipal

Weather History for KCVN - May, 2013

Change the Weather History Date:

Thursday, May 2, 2013

  Actual Average Record
Temperature  
Mean Temperature 42 °F -  
Max Temperature 51 °F 73 °F 96 °F (1943)
Min Temperature 30 °F 43 °F 30 °F (2008)
Degree Days  
Heating Degree Days 24    
Moisture  
Dew Point 19 °F    
Average Humidity 44    
Maximum Humidity 60    
Minimum Humidity 30    
Precipitation  
Precipitation 0.00 in - - ()
Sea Level Pressure  
Sea Level Pressure 30.51 in    
Wind  
Wind Speed 31 mph (NNE)    
Max Wind Speed 40 mph    
Max Gust Speed 51 mph    
Visibility 9 miles    
Events      
Averages and records for this station are not official NWS values.
T = Trace of Precipitation, MM = Missing Value Source: NWS Daily Summary

Daily Weather History Graph

Daily Weather History Graph

Search for Another Location

Airport or City:

Trip Planner

Search our weather history database for the weather conditions in past years. The results will help you decide how hot, cold, wet, or windy it might be!

Date:

Astronomy

May. 02, 2013 Rise Set
Actual Time 6:01 AM MDT 7:37 PM MDT
Civil Twilight 5:34 AM MDT 8:04 PM MDT
Nautical Twilight 5:01 AM MDT 8:37 PM MDT
Astronomical Twilight 4:27 AM MDT 9:11 PM MDT
Moon 1:31 AM MDT (5/2) 12:47 PM MDT (5/2)
Length of Visible Light 14h 30m
Length of Day
13h 36m
Waning Gibbous, 47% of the Moon is Illuminated
May 2
Waning Gibbous
May 9
New
May 17
First Quarter
May 24
Full
May 31
Last Quarter

Hourly Weather History & Observations

Time (MDT) Temp. Windchill Dew Point Humidity Pressure Visibility Wind Dir Wind Speed Gust Speed Precip Events Conditions
12:15 AM 37.4 °F 24.2 °F 24.8 °F 60% 30.38 in 9.0 mi NNE 34.5 mph 44.9 mph N/A   Mostly Cloudy
12:35 AM 37.4 °F 24.0 °F 23.0 °F 56% 30.40 in 10.0 mi NNE 35.7 mph 43.7 mph N/A   Partly Cloudy
12:55 AM 37.4 °F 24.6 °F 21.2 °F 52% 30.40 in 10.0 mi NNE 32.2 mph 46.0 mph N/A   Partly Cloudy
1:15 AM 35.6 °F 21.9 °F 21.2 °F 56% 30.41 in 10.0 mi North 33.4 mph 39.1 mph N/A   Clear
1:35 AM 35.6 °F 22.1 °F 21.2 °F 56% 30.40 in 10.0 mi North 32.2 mph 41.4 mph N/A   Clear
1:55 AM 35.6 °F 22.7 °F 21.2 °F 56% 30.39 in 10.0 mi North 28.8 mph 40.3 mph N/A   Clear
2:15 AM 35.6 °F 21.5 °F 21.2 °F 56% 30.39 in 10.0 mi North 35.7 mph 44.9 mph N/A   Partly Cloudy
2:35 AM 33.8 °F 19.2 °F 21.2 °F 60% 30.40 in 10.0 mi North 34.5 mph 43.7 mph N/A   Clear
2:55 AM 35.6 °F 21.9 °F 21.2 °F 56% 30.39 in 10.0 mi North 33.4 mph 43.7 mph N/A   Partly Cloudy
3:15 AM 35.6 °F 21.3 °F 21.2 °F 56% 30.40 in 10.0 mi North 36.8 mph 43.7 mph N/A   Scattered Clouds
3:35 AM 33.8 °F 19.9 °F 21.2 °F 60% 30.41 in 10.0 mi North 31.1 mph 44.9 mph N/A   Mostly Cloudy
3:55 AM 35.6 °F 21.3 °F 21.2 °F 56% 30.42 in 10.0 mi North 36.8 mph 44.9 mph N/A   Overcast
4:15 AM 35.6 °F 21.5 °F 21.2 °F 56% 30.43 in 10.0 mi North 35.7 mph 47.2 mph N/A   Overcast
4:35 AM 35.6 °F 21.9 °F 21.2 °F 56% 30.44 in 10.0 mi North 33.4 mph 42.6 mph N/A   Overcast
4:55 AM 35.6 °F 21.0 °F 21.2 °F 56% 30.45 in 10.0 mi North 39.1 mph 46.0 mph N/A   Overcast
5:15 AM 35.6 °F 21.5 °F 23.0 °F 60% 30.46 in 10.0 mi North 35.7 mph 44.9 mph N/A   Overcast
5:35 AM 35.6 °F 21.7 °F 21.2 °F 56% 30.46 in 9.0 mi North 34.5 mph 44.9 mph N/A   Overcast
5:55 AM 35.6 °F 21.1 °F 21.2 °F 56% 30.48 in 9.0 mi North 38.0 mph 46.0 mph N/A   Overcast
6:15 AM 35.6 °F 21.7 °F 21.2 °F 56% 30.49 in 9.0 mi NNE 34.5 mph 43.7 mph N/A   Overcast
6:35 AM 35.6 °F 21.1 °F 21.2 °F 56% 30.50 in 10.0 mi North 38.0 mph 44.9 mph N/A   Overcast
6:55 AM 35.6 °F 21.1 °F 21.2 °F 56% 30.51 in 8.0 mi NNE 38.0 mph 43.7 mph N/A   Overcast
7:15 AM 35.6 °F 21.1 °F 21.2 °F 56% 30.52 in 5.0 mi North 38.0 mph 50.6 mph N/A   Overcast
7:35 AM 35.6 °F 21.3 °F 19.4 °F 52% 30.53 in 6.0 mi NNE 36.8 mph 49.5 mph N/A   Overcast
7:55 AM 35.6 °F 21.1 °F 21.2 °F 56% 30.54 in 10.0 mi North 38.0 mph 44.9 mph N/A   Overcast
8:15 AM 35.6 °F 21.7 °F 21.2 °F 56% 30.55 in 10.0 mi NNE 34.5 mph 44.9 mph N/A   Overcast
8:35 AM 37.4 °F 23.6 °F 21.2 °F 52% 30.56 in 9.0 mi NNE 38.0 mph 43.7 mph N/A   Overcast
8:55 AM 37.4 °F 23.6 °F 21.2 °F 52% 30.56 in 9.0 mi NNE 38.0 mph 46.0 mph N/A   Overcast
9:15 AM 39.2 °F 26.1 °F 21.2 °F 49% 30.57 in 10.0 mi North 38.0 mph 43.7 mph N/A   Overcast
9:35 AM 39.2 °F 26.1 °F 21.2 °F 49% 30.57 in 7.0 mi NNE 38.0 mph 46.0 mph N/A   Overcast
9:55 AM 41.0 °F 28.8 °F 21.2 °F 45% 30.57 in 8.0 mi NNE 36.8 mph 46.0 mph N/A   Overcast
10:15 AM 42.8 °F 31.1 °F 21.2 °F 42% 30.58 in 8.0 mi NNE 38.0 mph 46.0 mph N/A   Overcast
10:35 AM 44.6 °F 33.6 °F 21.2 °F 39% 30.58 in 8.0 mi NNE 38.0 mph 48.3 mph N/A   Overcast
10:55 AM 44.6 °F 34.1 °F 21.2 °F 39% 30.58 in 7.0 mi North 34.5 mph 48.3 mph N/A   Mostly Cloudy
11:15 AM 46.4 °F 36.5 °F 21.2 °F 37% 30.59 in 7.0 mi NNE 34.5 mph 44.9 mph N/A   Mostly Cloudy
11:35 AM 44.6 °F 33.8 °F 21.2 °F 39% 30.59 in 8.0 mi NNE 36.8 mph 46.0 mph N/A   Overcast
11:55 AM 44.6 °F 34.6 °F 21.2 °F 39% 30.59 in 10.0 mi North 31.1 mph 44.9 mph N/A   Overcast
12:15 PM 44.6 °F 33.9 °F 21.2 °F 39% 30.59 in 10.0 mi North 35.7 mph 42.6 mph N/A   Overcast
12:35 PM 46.4 °F 36.1 °F 21.2 °F 37% 30.57 in 10.0 mi North 38.0 mph 46.0 mph N/A   Scattered Clouds
12:55 PM 46.4 °F 35.8 °F 21.2 °F 37% 30.56 in 5.0 mi NNE 40.3 mph 48.3 mph N/A   Partly Cloudy
1:15 PM 48.2 °F - 19.4 °F 32% 30.56 in 5.0 mi NNE 36.8 mph 49.5 mph N/A   Clear
1:35 PM 48.2 °F - 21.2 °F 34% 30.56 in 7.0 mi NNE 34.5 mph 50.6 mph N/A   Clear
1:55 PM 48.2 °F - 19.4 °F 32% 30.56 in 6.0 mi North 35.7 mph 44.9 mph N/A   Clear
2:15 PM 48.2 °F - 21.2 °F 34% 30.56 in 9.0 mi North 34.5 mph 44.9 mph N/A   Clear
2:35 PM 50.0 °F - 21.2 °F 32% 30.56 in 10.0 mi NNE 33.4 mph 41.4 mph N/A   Clear
2:55 PM 50.0 °F - 21.2 °F 32% 30.56 in 10.0 mi NNE 28.8 mph 40.3 mph N/A   Clear
3:15 PM 48.2 °F - 21.2 °F 34% 30.55 in 10.0 mi NNE 27.6 mph 35.7 mph N/A   Partly Cloudy
3:35 PM 51.8 °F - 21.2 °F 30% 30.54 in 10.0 mi NNE 31.1 mph 38.0 mph N/A   Partly Cloudy
3:55 PM 50.0 °F - 21.2 °F 32% 30.54 in 10.0 mi NNE 25.3 mph 34.5 mph N/A   Clear
4:15 PM 50.0 °F - 21.2 °F 32% 30.54 in 10.0 mi NNE 29.9 mph 35.7 mph N/A   Partly Cloudy
4:35 PM 50.0 °F - 21.2 °F 32% 30.53 in 10.0 mi NNE 25.3 mph 36.8 mph N/A   Clear
4:55 PM 50.0 °F - 19.4 °F 30% 30.53 in 10.0 mi NNE 25.3 mph 35.7 mph N/A   Clear
5:15 PM 48.2 °F - 19.4 °F 32% 30.53 in 10.0 mi NNE 27.6 mph 32.2 mph N/A   Clear
5:35 PM 48.2 °F - 19.4 °F 32% 30.53 in 10.0 mi NNE 25.3 mph - N/A   Clear
5:55 PM 48.2 °F - 19.4 °F 32% 30.53 in 10.0 mi NE 20.7 mph 28.8 mph N/A   Scattered Clouds
6:15 PM 44.6 °F 37.2 °F 17.6 °F 34% 30.52 in 10.0 mi NNE 17.3 mph 24.2 mph N/A   Scattered Clouds
6:35 PM 46.4 °F 38.3 °F 17.6 °F 32% 30.52 in 10.0 mi NE 23.0 mph 27.6 mph N/A   Clear
6:55 PM 46.4 °F 39.8 °F 17.6 °F 32% 30.52 in 10.0 mi NNE 16.1 mph - N/A   Partly Cloudy
7:15 PM 44.6 °F 37.8 °F 17.6 °F 34% 30.52 in 10.0 mi ENE 15.0 mph - N/A   Clear
7:35 PM 42.8 °F 36.2 °F 15.8 °F 34% 30.52 in 10.0 mi ENE 12.7 mph - N/A   Clear
7:55 PM 42.8 °F 36.6 °F 15.8 °F 34% 30.52 in 10.0 mi ENE 11.5 mph - N/A   Clear
8:15 PM 39.2 °F 34.2 °F 15.8 °F 39% 30.52 in 10.0 mi ENE 6.9 mph - N/A   Clear
8:35 PM 37.4 °F 32.8 °F 15.8 °F 41% 30.53 in 10.0 mi ENE 5.8 mph - N/A   Clear
8:55 PM 37.4 °F 32.1 °F 14.0 °F 38% 30.52 in 10.0 mi NE 6.9 mph - N/A   Clear
9:15 PM 37.4 °F 30.3 °F 12.2 °F 36% 30.52 in 10.0 mi NE 10.4 mph - N/A   Clear
9:35 PM 35.6 °F 28.6 °F 12.2 °F 38% 30.52 in 10.0 mi NE 9.2 mph - N/A   Clear
9:55 PM 35.6 °F 31.7 °F 12.2 °F 38% 30.52 in 10.0 mi NNE 4.6 mph - N/A   Clear
10:15 PM 35.6 °F 32.8 °F 14.0 °F 41% 30.52 in 10.0 mi North 3.5 mph - N/A   Clear
10:35 PM 33.8 °F - 12.2 °F 41% 30.52 in 10.0 mi Calm Calm - N/A   Clear
10:55 PM 33.8 °F - 12.2 °F 41% 30.52 in 10.0 mi Calm Calm - N/A   Clear
11:15 PM 33.8 °F 30.8 °F 12.2 °F 41% 30.52 in 10.0 mi NNW 3.5 mph - N/A   Clear
11:35 PM 32.0 °F 27.5 °F 10.4 °F 41% 30.51 in 10.0 mi North 4.6 mph - N/A   Clear
11:55 PM 30.2 °F 25.4 °F 10.4 °F 44% 30.51 in 10.0 mi NNW 4.6 mph - N/A   Clear